Volver al catálogo

NIMBUS 2 DEB

ActivoLEO
NORAD 28621·DEBRIS·🇺🇸 United States

Lanzado May 15, 1966 desde Vandenberg Space Force Base

Loading…

Próximos Pases (próximas 24 horas)

TLE

ActualizadoSource: Space-Track

Época: Sep 13, 2026, 23:13 UTC

1 28621U 66040AM  26256.96743764  .00007381  00000-0  27010-2 0  9993
2 28621 100.2516 147.9910 0031606 339.8542  20.1387 14.32979362729428

Sigue NIMBUS 2 DEB en tiempo real con AllMySat

Download on the App Store